Content
SEND FEEDBACK

Daily
Averages
Monthly
Summary
United States of America

ANN ARBOR, MICHIGAN


Home > North America > United States > Michigan
Elevation: 759 feet     Latitude: 42 17N     Longitude: 083 43W

WEATHER
 
SELECT A DAY
Number of Records: 206,948;   Date Range: 1/1/95 - 10/19/14
 
SHARE

PRINT THIS DATA

[ ← Previous Day ]
WEATHER ALMANAC - JANUARY 28, 2013
[ Next Day → ]
[ °C ]   °F
Weather ElementAverageHighLow
Temperature36.7 °F43 °F (3:53 pm)30.2 °F (12:12 am)
Dewpoint35.7 °F42.8 °F (5:04 pm)28.4 °F (12:12 am)
Humidity96.2 %100 % (5:45 am)92 % (12:53 am)
Barometer29.97 in30.12 in (12:53 am)29.88 in (10:27 am)
Wind Speed7.9 mph15 mph (12:15 am)
Wind Gust24.2 mph (12:15 am)
Weather ElementAverage
Visibility1.9 mi
Wind DirectionSSW (207.5 °)

Weather ElementTotal
Precipitation0.66 in
Heating Degree Days28.4 (Base 65)
Averaged from 57 records on January 28, 2013
WEATHER CONDITIONS BREAKOUT
WIND DIRECTION BREAKOUT
WEATHER BY HOUR - JANUARY 28, 2013
[ °C ]   °F
Local TimeTemperatureDewpointHumidityBarometerVisibilityWind DirectionWind SpeedGust SpeedPrecipitationEventsConditions
12:12 AM30.2 °F28.4 °F93 %30.10 in3.0 miSouth (170°)13.8 mph20.7 mph0.03 inRainLight Freezing Rain
12:15 AM30.2 °F28.4 °F93 %30.10 in2.5 miSouth (170°)15.0 mph24.2 mph0.04 inRainLight Freezing Rain
12:34 AM30.2 °F28.4 °F93 %30.09 in3.0 miSSE (160°)11.5 mph19.6 mph0.09 inRainLight Freezing Rain
12:42 AM30.2 °F28.4 °F93 %30.09 in2.5 miSouth (170°)11.5 mph19.6 mph0.11 inRainLight Freezing Rain
12:51 AM30.2 °F28.4 °F93 %30.09 in2.5 miSSE (160°)9.2 mph0.14 inRainLight Freezing Rain
12:53 AM30.9 °F28.9 °F92 %30.12 in3.0 miSSE (160°)10.4 mph0.14 inRainLight Freezing Rain
1:01 AM30.2 °F28.4 °F93 %30.08 in3.0 miSSE (160°)9.2 mph0.01 inRainLight Freezing Rain
1:18 AM30.2 °F28.4 °F93 %30.07 in5.0 miSSE (150°)13.8 mph0.01 inRainLight Freezing Rain
1:34 AM30.2 °F28.4 °F93 %30.07 in5.0 miSSE (160°)8.1 mph0.01 inOvercast
1:53 AM30.9 °F28.9 °F92 %30.08 in5.0 miSSE (150°)10.4 mph0.01 inOvercast
2:53 AM32.0 °F30.0 °F92 %30.05 in3.0 miSouth (170°)5.8 mph0.03 inOvercast
3:12 AM32.0 °F30.2 °F93 %30.02 in2.5 miSouth (180°)8.1 mph0.00 inOvercast
3:29 AM32.0 °F30.2 °F93 %30.02 in1.8 miSouth (180°)5.8 mph0.00 inOvercast
3:49 AM32.0 °F30.2 °F93 %30.00 in1.2 miSouth (170°)6.9 mph0.01 inSnowLight Snow
3:53 AM32.0 °F30.9 °F96 %30.03 in1.2 miSouth (180°)6.9 mph0.01 inSnowLight Snow
4:10 AM33.8 °F32.0 °F93 %29.99 in1.5 miSouth (170°)6.9 mph0.00 inOvercast
4:51 AM33.8 °F32.0 °F93 %29.97 in1.2 miSouth (190°)8.1 mph0.00 inOvercast
4:53 AM33.1 °F32.0 °F96 %30.00 in1.2 miSouth (170°)5.8 mph0.00 inOvercast
5:12 AM33.8 °F32.0 °F93 %29.96 in1.5 miSouth (190°)6.9 mphOvercast
5:45 AM33.8 °F33.8 °F100 %29.94 in1.0 miSSW (200°)8.1 mphOvercast
5:53 AM33.1 °F33.1 °F100 %29.97 in0.8 miSouth (190°)6.9 mphOvercast
6:53 AM34.0 °F33.1 °F96 %29.94 in0.5 miSSW (200°)5.8 mph0.01 inFogFog
7:53 AM34.0 °F34.0 °F100 %29.93 in0.2 miSSW (200°)6.9 mphFogFog
8:53 AM35.1 °F34.0 °F96 %29.92 in0.2 miSSW (210°)6.9 mphFogFog
9:53 AM37.9 °F37.9 °F100 %29.91 in1.0 miSW (220°)9.2 mph0.01 inRainLight Rain
10:27 AM39.2 °F39.2 °F100 %29.88 in1.5 miSW (220°)8.1 mph0.00 inOvercast
10:40 AM39.2 °F39.2 °F100 %29.88 in1.2 miSW (220°)9.2 mph0.00 inOvercast
10:53 AM39.9 °F39.0 °F97 %29.91 in1.5 miSW (230°)9.2 mph0.00 inOvercast
11:00 AM39.2 °F39.2 °F100 %29.88 in1.2 miSW (220°)11.5 mphOvercast
11:09 AM39.2 °F39.2 °F100 %29.89 in1.5 miSW (220°)10.4 mphOvercast
11:21 AM39.2 °F39.2 °F100 %29.89 in1.0 miSW (230°)9.2 mphOvercast
11:42 AM41.0 °F39.2 °F93 %29.88 in1.5 miSW (220°)9.2 mphOvercast
11:49 AM41.0 °F39.2 °F93 %29.88 in1.2 miSW (220°)11.5 mphOvercast
11:53 AM41.0 °F39.9 °F96 %29.90 in1.5 miSW (220°)9.2 mphOvercast
12:06 PM41.0 °F41.0 °F100 %29.88 in1.2 miSW (220°)9.2 mphOvercast
12:53 PM42.1 °F41.0 °F96 %29.88 in0.8 miSW (220°)10.4 mphOvercast
1:53 PM42.1 °F42.1 °F100 %29.88 in0.5 miSW (230°)9.2 mphFogFog
2:53 PM42.1 °F41.0 °F96 %29.88 in0.2 miWSW (240°)9.2 mphFogFog
3:53 PM43.0 °F42.1 °F97 %29.89 in0.2 miWSW (240°)8.1 mphFogFog
4:53 PM43.0 °F42.1 °F97 %29.92 in0.2 miWSW (250°)6.9 mphFogFog
5:04 PM42.8 °F42.8 °F100 %29.91 in0.5 miWest (270°)8.1 mphFogFog
5:10 PM42.8 °F42.8 °F100 %29.92 in1.8 miWest (280°)9.2 mphOvercast
5:17 PM42.8 °F42.8 °F100 %29.92 in2.5 miWest (280°)6.9 mphOvercast
5:25 PM42.8 °F41.0 °F93 %29.92 in1.2 miWest (280°)5.8 mphOvercast
5:40 PM42.8 °F42.8 °F100 %29.93 in2.0 miWest (280°)8.1 mphOvercast
5:49 PM42.8 °F42.8 °F100 %29.93 in4.0 miWest (280°)9.2 mphOvercast
5:53 PM42.1 °F42.1 °F100 %29.95 in4.0 miWest (280°)8.1 mphOvercast
6:53 PM41.0 °F39.9 °F96 %29.98 in5.0 miWNW (290°)8.1 mphOvercast
7:53 PM39.9 °F39.0 °F97 %30.00 in2.5 miNNW (330°)5.8 mphOvercast
8:53 PM37.9 °F37.9 °F100 %30.02 in2.0 miNNW (330°)4.6 mphOvercast
9:53 PM37.0 °F37.0 °F100 %30.02 in2.0 miNNW (340°)3.5 mphOvercast
10:11 PM37.4 °F35.6 °F93 %30.00 in1.8 miNorth (10°)3.5 mphOvercast
10:18 PM37.4 °F35.6 °F93 %30.00 in2.0 miNorth (350°)3.5 mphOvercast
10:40 PM37.4 °F35.6 °F93 %30.01 in3.0 miCalmOvercast
10:53 PM37.0 °F36.0 °F96 %30.02 in3.0 miNorth (360°)4.6 mphOvercast
11:40 PM35.6 °F35.6 °F100 %30.01 in2.0 miCalmOvercast
11:53 PM36.0 °F35.1 °F97 %30.02 in1.8 miNE (40°)3.5 mphOvercast
Hourly data recorded from KARB, located miles away from Ann Arbor, Michigan







STORIES FROM OUR PARTNERS